| time (UTC) | temp C | wind direction | speed KPH | gust KPH | rain 1hr cm | rain 24hr cm | rain mn cm | humidity % | barometer mb |
| 20260504081306 | 5 | 136 | 0.0 | 0.0 | 0.00 | 0.00 | 0.00 | 75 | 1013.5 |
| 20260504080245 | 5 | 129 | 0.0 | 0.0 | 0.00 | 0.00 | 0.00 | 75 | 1013.2 |
| 20260504050647 | 8 | 137 | 0.0 | 0.0 | 0.00 | 0.00 | 0.00 | 65 | 1013.5 |
| 20260504045627 | 8 | 140 | 0.0 | 1.6 | 0.00 | 0.00 | 0.00 | 64 | 1013.9 |
| 20260504044606 | 8 | 137 | 0.0 | 0.0 | 0.00 | 0.00 | 0.00 | 63 | 1013.5 |
| 20260504043544 | 8 | 142 | 0.0 | 0.0 | 0.00 | 0.00 | 0.00 | 63 | 1013.5 |
| 20260504042524 | 8 | 140 | 0.0 | 0.0 | 0.00 | 0.00 | 0.00 | 64 | 1013.5 |
| 20260504041503 | 8 | 140 | 0.0 | 0.0 | 0.00 | 0.00 | 0.00 | 63 | 1013.5 |
| 20260504040442 | 8 | 143 | 0.0 | 1.6 | 0.00 | 0.00 | 0.00 | 62 | 1013.5 |
| 20260504035420 | 8 | 142 | 0.0 | 0.0 | 0.00 | 0.00 | 0.00 | 61 | 1013.2 |
| 20260504034400 | 8 | 144 | 0.0 | 0.0 | 0.00 | 0.00 | 0.00 | 61 | 1013.2 |
| 20260504033338 | 8 | 177 | 0.0 | 0.0 | 0.00 | 0.00 | 0.00 | 61 | 1013.2 |
| 20260504032318 | 8 | 135 | 0.0 | 0.0 | 0.00 | 0.00 | 0.00 | 61 | 1013.2 |
| 20260504031257 | 8 | 135 | 0.0 | 0.0 | 0.00 | 0.00 | 0.00 | 62 | 1013.2 |
| 20260504030236 | 8 | 141 | 0.0 | 0.0 | 0.00 | 0.00 | 0.00 | 62 | 1013.2 |
| 20260504025214 | 8 | 141 | 0.0 | 0.0 | 0.00 | 0.00 | 0.00 | 60 | 1013.2 |
| 20260504024153 | 8 | 140 | 0.0 | 0.0 | 0.00 | 0.00 | 0.00 | 60 | 1013.2 |
| 20260504023133 | 8 | 142 | 0.0 | 0.0 | 0.00 | 0.00 | 0.00 | 60 | 1013.2 |
| 20260504022111 | 9 | 142 | 0.0 | 0.0 | 0.00 | 0.00 | 0.00 | 59 | 1013.2 |
| 20260504021051 | 9 | 142 | 0.0 | 0.0 | 0.00 | 0.00 | 0.00 | 58 | 1013.5 |
| 20260504020030 | 9 | 141 | 0.0 | 0.0 | 0.00 | 0.00 | 0.00 | 56 | 1012.9 |
| 20260504015008 | 9 | 139 | 0.0 | 0.0 | 0.00 | 0.00 | 0.00 | 55 | 1013.2 |
| 20260504013947 | 9 | 141 | 0.0 | 0.0 | 0.00 | 0.00 | 0.00 | 55 | 1012.9 |
| 20260504012926 | 10 | 139 | 0.0 | 0.0 | 0.00 | 0.00 | 0.00 | 54 | 1013.2 |
| 20260504011905 | 10 | 142 | 0.0 | 0.0 | 0.00 | 0.00 | 0.00 | 54 | 1012.9 |
| 20260504010844 | 10 | 137 | 0.0 | 0.0 | 0.00 | 0.00 | 0.00 | 54 | 1012.5 |
| 20260504005824 | 10 | 142 | 0.0 | 0.0 | 0.00 | 0.00 | 0.00 | 52 | 1012.5 |
| 20260504004802 | 11 | 150 | 0.0 | 0.0 | 0.00 | 0.00 | 0.00 | 49 | 1012.5 |
| 20260504003741 | 11 | 132 | 0.0 | 0.0 | 0.00 | 0.00 | 0.00 | 49 | 1012.5 |
| 20260504002720 | 12 | 145 | 0.0 | 0.0 | 0.00 | 0.00 | 0.00 | 45 | 1012.2 |
| 20260504001659 | 13 | 195 | 3.2 | 3.2 | 0.00 | 0.00 | 0.00 | 43 | 1012.2 |
| 20260504000638 | 13 | 278 | 0.0 | 1.6 | 0.00 | 0.00 | 0.00 | 42 | 1011.8 |
| 20260503235617 | 14 | 171 | 3.2 | 3.2 | 0.00 | 0.00 | 0.00 | 41 | 1011.8 |
| 20260503234556 | 15 | 285 | 3.2 | 3.2 | 0.00 | 0.00 | 0.00 | 40 | 1012.2 |
| 20260503233535 | 15 | 285 | 3.2 | 3.2 | 0.00 | 0.00 | 0.00 | 38 | 1011.8 |
| 20260503232514 | 15 | 193 | 3.2 | 3.2 | 0.00 | 0.00 | 0.00 | 38 | 1011.5 |
| 20260503231453 | 16 | 174 | 4.8 | 4.8 | 0.00 | 0.00 | 0.00 | 37 | 1011.8 |
| 20260503230432 | 16 | 255 | 6.4 | 9.7 | 0.00 | 0.00 | 0.00 | 37 | 1011.8 |
| 20260503225411 | 16 | 222 | 9.7 | 14.5 | 0.00 | 0.00 | 0.00 | 36 | 1011.8 |
| 20260503224350 | 16 | 357 | 3.2 | 3.2 | 0.00 | 0.00 | 0.00 | 35 | 1011.5 |
| 20260503223329 | 16 | 263 | 3.2 | 4.8 | 0.00 | 0.00 | 0.00 | 37 | 1011.8 |
| 20260503222308 | 16 | 106 | 3.2 | 3.2 | 0.00 | 0.00 | 0.00 | 36 | 1011.8 |
| 20260503220227 | 16 | 175 | 3.2 | 4.8 | 0.00 | 0.00 | 0.00 | 35 | 1011.8 |
| 20260503215205 | 16 | 206 | 8.0 | 14.5 | 0.00 | 0.00 | 0.00 | 36 | 1011.8 |
| 20260503212102 | 16 | 286 | 9.7 | 16.1 | 0.00 | 0.00 | 0.00 | 35 | 1011.8 |
| 20260503211041 | 15 | 283 | 3.2 | 4.8 | 0.00 | 0.00 | 0.00 | 37 | 1011.5 |
| 20260503210020 | 16 | 280 | 4.8 | 4.8 | 0.00 | 0.00 | 0.00 | 35 | 1011.8 |
| 20260503205000 | 16 | 299 | 6.4 | 9.7 | 0.00 | 0.00 | 0.00 | 37 | 1011.5 |
| 20260503202917 | 17 | 182 | 3.2 | 4.8 | 0.00 | 0.00 | 0.00 | 35 | 1011.8 |
| 20260503201856 | 15 | 308 | 9.7 | 12.9 | 0.00 | 0.00 | 0.00 | 36 | 1011.8 |
| 20260503200835 | 15 | 251 | 9.7 | 17.7 | 0.00 | 0.00 | 0.00 | 35 | 1012.5 |
| 20260503195814 | 15 | 267 | 12.9 | 16.1 | 0.00 | 0.00 | 0.00 | 35 | 1012.2 |
| 20260503194753 | 15 | 320 | 4.8 | 6.4 | 0.00 | 0.00 | 0.00 | 39 | 1012.2 |
| 20260503193732 | 15 | 334 | 3.2 | 4.8 | 0.00 | 0.00 | 0.00 | 37 | 1012.9 |
| 20260503192711 | 15 | 304 | 11.3 | 12.9 | 0.00 | 0.00 | 0.00 | 36 | 1012.5 |
| 20260503191650 | 15 | 235 | 11.3 | 14.5 | 0.00 | 0.00 | 0.00 | 36 | 1012.5 |
| 20260503185608 | 15 | 137 | 0.0 | 1.6 | 0.00 | 0.00 | 0.00 | 37 | 1012.9 |
| 20260503183526 | 15 | 290 | 14.5 | 17.7 | 0.00 | 0.00 | 0.00 | 37 | 1013.2 |
| 20260503182505 | 13 | 284 | 1.6 | 3.2 | 0.00 | 0.00 | 0.00 | 43 | 1012.9 |
| 20260503181444 | 13 | 341 | 11.3 | 17.7 | 0.00 | 0.00 | 0.00 | 39 | 1013.2 |
| 20260503180423 | 13 | 279 | 8.0 | 12.9 | 0.00 | 0.00 | 0.00 | 40 | 1013.2 |
| 20260503175402 | 12 | 281 | 17.7 | 20.9 | 0.00 | 0.00 | 0.00 | 40 | 1013.5 |
| 20260503174341 | 13 | 263 | 4.8 | 4.8 | 0.00 | 0.00 | 0.00 | 42 | 1013.5 |
| 20260503173320 | 13 | 185 | 4.8 | 4.8 | 0.00 | 0.00 | 0.00 | 39 | 1013.5 |
| 20260503172259 | 13 | 352 | 14.5 | 16.1 | 0.00 | 0.00 | 0.00 | 40 | 1013.5 |
| 20260503171238 | 13 | 255 | 8.0 | 12.9 | 0.00 | 0.00 | 0.00 | 42 | 1013.9 |
| 20260503170217 | 12 | 357 | 6.4 | 11.3 | 0.00 | 0.00 | 0.00 | 41 | 1013.9 |
| 20260503150826 | 11 | 295 | 4.8 | 6.4 | 0.00 | 0.00 | 0.00 | 46 | 1014.2 |